www.pogodaiklimat.ru

Погода и климат >> Архив погоды >> Оман >> Khasab Airport


ПОГОДА в Khasab Airport

  • Прогноз погоды в Khasab Airport
  • Монитор погоды в Khasab Airport
  • Климат города

АРХИВ ПОГОДЫ в Khasab Airport

Время (UTC), дата Ветер
(напр.,м/с)
 
Видим.   Явления Облачность Т
(С)
Тd
(С)
f
(%)
Тe
(С)
Тes
(С)
Комфортность P
(гПа)
Po
(гПа)
Тmin
(С)
Tmax
(С)
R
(мм)
R24
(мм)
S
(см)
12 12.12 СВ 6 н/о ясно +25.6 +15.2 53 +29 +29 душно 1017.1 1013.6
15 12.12 С 2 н/о ясно +23.7 +15.9 62 +27 +27 жарко 1018.3 1014.8
18 12.12 З 2 н/о ясно +22.4 +16.1 68 +27 +27 душно 1019.0 1015.4 +26.8
21 12.12 Ю 2 н/о ясно +20.6 +15.5 73 +24 +24 комфорт 1018.7 1015.1
00 13.12 нст 1 н/о ясно +19.6 +12.2 62 +22 +22 комфорт 1018.8 1015.2
03 13.12 Ю 2 10 км 4/4 750 м
[Sc]
+18.8 +11.5 63 +20 +20 1020.0 1016.4
06 13.12 нст 1 10 км ясно +24.1 +9.5 40 +25 +32 комфорт 1021.9 1018.3 +18.7
09 13.12 нст 5 10 км ясно +25.6 +14.9 52 +28 +33 жарко 1019.5 1016.0
12 13.12 нст 4 10 км 3/3 900 м
[Cu hum]
+25.4 +15.3 54 +28 +29 жарко 1018.6 1015.1
15 13.12 С 2 10 км ясно +24.3 +14.6 55 +27 +27 жарко 1019.9 1016.4
18 13.12 Ю 2 10 км ясно +22.9 +14.3 58 +26 +26 жарко 1020.5 1016.9 +26.1
21 13.12 нст 1 н/о ясно +21.5 +14.3 64 +24 +24 комфорт 1020.0 1016.4
00 14.12 Ю 2 н/о ясно +20.4 +13.9 66 +23 +23 комфорт 1020.0 1016.4
03 14.12 Ю 2 10 км ясно +19.0 +13.3 70 +21 +21 комфорт 1021.3 1017.7
06 14.12 нст 2 10 км 1/1 900 м
[Cu hum]
+23.8 +11.0 45 +25 +31 комфорт 1022.8 1019.2 +18.7
09 14.12 нст 2 10 км 3/3 900 м
[Cu hum]
+25.5 +12.2 44 +27 +34 жарко 1020.5 1017.0
12 14.12 С 3 10 км 4/4 900 м
[Cu Sc]
+25.6 +8.4 34 +26 +27 жарко 1019.4 1015.9
15 14.12 нст 1 10 км 3/3 750 м
[Sc]
+24.3 +12.4 47 +26 +26 жарко 1021.0 1017.5
18 14.12 нст 1 10 км ясно +22.5 +12.6 54 +25 +25 комфорт 1021.5 1017.9 +26.7
21 14.12 ЮЗ 2 н/о ясно +21.9 +13.6 59 +25 +25 комфорт 1020.5 1016.9
00 15.12 нст 1 н/о ясно +20.6 +13.7 65 +24 +24 комфорт 1020.3 1016.7
06 15.12 нст 2 9000 м мгла 3/3 750 м
[Sc]
+24.2 +14.2 54 +27 +31 жарко 1022.4 1018.8 +19.8
09 15.12 СВ 3 9000 м мгла 6/6 900 м
[Cu Sc]
+25.6 +14.6 51 +28 +31 жарко 1019.7 1016.2
12 15.12 нст 2 8000 м мгла 8/8 750 м
[Cu Sc]
+25.2 +14.8 52 +28 +28 жарко 1019.3 1015.8
15 15.12 нст 3 8000 м мгла 5/5 750 м
[Cu Sc]
+24.5 +15.3 57 +27 +27 жарко 1020.7 1017.2
18 15.12 нст 1 7000 м мгла 4/0 2000 м
[As trans]
+23.6 +15.0 59 +26 +26 жарко 1021.5 1017.9 +26.9
21 15.12 нст 1 н/о ясно +21.5 +14.7 65 +25 +25 комфорт 1021.0 1017.4
00 16.12 нст 1 н/о ясно +21.4 +14.7 66 +24 +24 комфорт 1021.2 1017.6
03 16.12 Ю 4 10 км 4/0
[Ac trans]
+20.0 +13.8 67 +22 +22 комфорт 1022.6 1019.0
06 16.12 Ю 2 10 км ясно +24.3 +11.8 46 +26 +32 жарко 1024.6 1021.0 +19.7
09 16.12 С 7 10 км 4/4 900 м
[Cu Sc]
+26.0 +13.4 46 +28 +29 жарко 1021.9 1018.4
12 16.12 нст 5 10 км 3/3 900 м
[Sc]
+26.2 +12.1 41 +28 +28 жарко 1020.5 1017.0
15 16.12 С 3 10 км ясно +24.4 +11.2 44 +26 +26 жарко 1022.2 1018.6
18 16.12 нст 1 10 км ясно +22.2 +13.1 56 +25 +25 комфорт 1022.7 1019.1 +27.4
21 16.12 нст 1 н/о ясно +21.2 +10.8 51 +23 +23 комфорт 1021.9 1018.3
00 17.12 Ю 3 н/о ясно +19.4 +9.7 53 +21 +21 комфорт 1021.4 1017.8
03 17.12 Ю 3 10 км ясно +18.3 +9.5 56 +19 +19 1022.2 1018.6
06 17.12 нст 2 10 км ясно +23.5 +7.8 37 +24 +30 комфорт 1023.8 1020.2 +18.2
09 17.12 С 6 10 км 1/1 900 м
[Sc]
+25.7 +13.1 46 +28 +31 жарко 1020.6 1017.1
12 17.12 нст 5 н/о ясно +25.6 +7.9 32 +26 +27 жарко 1019.4 1015.9
15 17.12 нст 1 н/о ясно +24.2 +8.0 36 +25 +25 комфорт 1020.2 1016.7
18 17.12 Ю 2 н/о ясно +21.8 +7.4 39 +23 +23 комфорт 1021.1 1017.5 +26.0
21 17.12 Ю 3 н/о ясно +20.9 +6.6 39 +22 +22 комфорт 1020.4 1016.8
00 18.12 Ю 3 н/о ясно +19.0 +6.3 43 +20 +20 1020.4 1016.8
03 18.12 Ю 4 н/о ясно +18.7 +5.3 41 +19 +19 1021.1 1017.5
06 18.12 нст 2 н/о 1/0
[]
+23.4 +3.5 27 +23 +28 комфорт 1022.6 1019.0 +17.8
09 18.12 нст 3 10 км 1/1 900 м
[Cu hum]
+25.3 +11.7 43 +27 +34 жарко 1020.7 1017.2
12 18.12 З 5 10 км ясно +25.3 +11.3 42 +27 +28 жарко 1018.5 1015.0
15 18.12 нст 3 10 км ясно +23.8 +9.2 39 +25 +25 комфорт 1019.5 1016.0
18 18.12 нст 2 10 км ясно +23.1 +8.9 40 +24 +24 комфорт 1020.2 1016.6 +26.1
21 18.12 нст 3 н/о ясно +21.3 +8.7 44 +22 +22 комфорт 1018.9 1015.3
00 19.12 нст 4 н/о ясно +19.6 +8.1 47 +20 +20 1018.4 1014.8
03 19.12 Ю 3 н/о ясно +18.2 +8.0 51 +18 +18 1019.3 1015.7
06 19.12 Ю 2 10 км ясно +22.9 +6.4 34 +23 +29 комфорт 1021.7 1018.1 +17.9
09 19.12 нст 6 10 км ясно +24.8 +14.4 52 +27 +31 жарко 1019.2 1015.7

 

Местоположение метеостанции Khasab Airport (Оман): широта 26.17 долгота 56.23 высота над уровнем моря 3 м.

В архиве по умолчанию представлена погода в Khasab Airport за последнюю неделю. Архивные данные за месяц целиком и за предыдущие месяцы, начиная с января 2011 года, Вы можете получить, выбрав интересующий диапазон дат из раскрывающегося списка и нажав кнопку "Ввод!".


*Определитесь, кто Вы:
робот инопланетянин человек

Внимание! Время в таблицах - всемирное. Для получения местного времени необходимо прибавить поправку, которая в Khasab Airport равна 4 ч.

Смотрите также архив погоды в соседних городах и на ближайших метеорологических станциях:

Погода в Khasab (Оман) (5 км)
Погода в Diba (Оман) (61 км)
Погода в Ras Al Khaimah Int Airport (ОАЭ) (68 км)
Погода в Sharjah (ОАЭ) (117 км)
Погода в Bandarabbass (Иран) (118 км)
Погода в Fujairah (ОАЭ) (119 км)
Погода в Dubai (ОАЭ) (136 км)
Погода в Abu Musa Island (Иран) (145 км)
Погода в Bandar Lengeh (Иран) (147 км)
Погода в Jask (Иран) (165 км)

Пояснения к столбцам:

Ветер - указаны скорость ветра в м/с - средняя за 10 мин, порывы в срок и между сроками (в фигурных скобках) и направление, откуда дует ветер: С - северный, СВ - северо-восточный, В - восточный, ЮВ - юго-восточный, Ю - южный, ЮЗ - юго-западный, З - западный, СЗ - северо-западный.
Видимость - горизонтальная дальность видимости в метрах или километрах. При видимости от 1 до 10 км при отсутствии осадков обычно наблюдается дымка, при ухудшении видимости до 1 км и менее - туман. В сухую погоду видимость может ухудшаться дымом, пылью или мглою.
Явления - указаны атмосферные явления, наблюдавшиеся в срок или в последний час перед сроком; фигурными скобками обозначены явления, наблюдавшиеся между сроками (за 1-3 часа до срока); квадратными скобками обозначены град или гололедные отложения с указанием их диаметра в мм.
Облачность - указаны через наклонную черту общая и нижняя облачность в баллах и высота нижней границы облаков в метрах; квадратными скобками обозначены формы облаков: Ci - перистые, Cs - перисто-слоистые, Cc - перисто-кучевые, Ac - высококучевые, As - высокослоистые, Sc - слоисто-кучевые, Ns - слоисто-дождевые, Cu - кучевые, Cb - кучево-дождевые. Подробнее классификацию облаков см. в Атласе облаков (PDF).
T - Температура воздуха - температура, измеренная на высоте 2 м над землей.
Td - Температура точки росы - температура, при понижении до которой содержащийся в воздухе водяной пар достигнет насыщения.
f - Относительная влажность воздуха - влажноcть воздуха, измеренная на высоте 2 м над землей.
Te - Эффективная температура - температура, которую ощущает одетый по сезону человек в тени. Характеристика душности погоды. При расчете учитывается влияние влажности воздуха и скорости ветра на теплоощущения человека.
Tes - Эффективная температура на солнце - температура, которую ощущает человек, с поправкой на солнечный нагрев. Характеристика знойности погоды. Зависит от высоты солнца над горизонтом, облачности и скорости ветра. Ночью, в пасмурную погоду, а также при ветре 12 м/с и более поправка равна нулю.
P - Атмосферное давление - приведенное к уровню моря атмосферное давление.
Po - Атмосферное давление - измеренное на уровне метеостанции атмосферное давление.
Tmin - Минимальная температура - минимум температуры воздуха на высоте 2 м над землей.
Tmax - Максимальная температура - максимум температуры воздуха на высоте 2 м над землей.
R - Количество осадков - Количество выпавших осадков за период времени, мм. При наведении курсора мыши на число - период времени, за который выпало указанное количество осадков.
R24 - Количество осадков - Количество выпавших осадков за 24 часа, мм.
S - Снежный покров - Высота снежного покрова, см. При наведении курсора мыши на число - состояние снежного покрова и степень покрытия местности в баллах.